EN

Hourly Weather Brinza

Today, 10 May, Monday

Time Temperature Precipitation Wind Pressure Humidity
00:00 +10°C° 0 mm 3 mps 765 mmHg 58%
01:00 +9°C° 0 mm 3 mps 765 mmHg 64%
02:00 +8°C° 0 mm 3 mps 765 mmHg 71%
03:00 +8°C° 0 mm 3 mps 765 mmHg 70%
04:00 +8°C° 0 mm 3 mps 765 mmHg 70%
05:00 +8°C° 0 mm 2 mps 765 mmHg 70%
06:00 +9°C° 0 mm 3 mps 765 mmHg 64%
07:00 +11°C° 0 mm 3 mps 765 mmHg 57%
08:00 +13°C° 0 mm 4 mps 765 mmHg 50%
09:00 +15°C° 0 mm 4 mps 765 mmHg 46%
10:00 +17°C° 0 mm 4 mps 765 mmHg 42%
11:00 +19°C° 0 mm 4 mps 765 mmHg 37%
12:00 +19°C° 0 mm 4 mps 764 mmHg 37%
13:00 +20°C° 0 mm 4 mps 764 mmHg 36%
14:00 +21°C° 0 mm 4 mps 763 mmHg 35%
15:00 +20°C° 0 mm 4 mps 763 mmHg 36%
16:00 +20°C° 0 mm 4 mps 762 mmHg 37%
17:00 +20°C° 0 mm 4 mps 762 mmHg 37%
18:00 +18°C° 0 mm 4 mps 762 mmHg 43%
19:00 +15°C° 0 mm 4 mps 762 mmHg 49%
20:00 +13°C° 0 mm 4 mps 762 mmHg 55%
21:00 +12°C° 0 mm 4 mps 762 mmHg 55%
22:00 +11°C° 0 mm 3 mps 762 mmHg 55%
23:00 +10°C° 0 mm 2 mps 762 mmHg 54%

Tomorrow, 11 May, Tuesday

Time Temperature Precipitation Wind Pressure Humidity
00:00 +10°C° 0 mm 2 mps 762 mmHg 55%
01:00 +9°C° 0 mm 2 mps 762 mmHg 56%
02:00 +9°C° 0 mm 2 mps 762 mmHg 58%
03:00 +9°C° 0 mm 2 mps 762 mmHg 59%
04:00 +9°C° 0 mm 1 mps 761 mmHg 60%
05:00 +9°C° 0 mm 1 mps 761 mmHg 62%
06:00 +11°C° 0 mm 1 mps 761 mmHg 57%
07:00 +13°C° 0 mm 1 mps 761 mmHg 52%
08:00 +15°C° 0 mm 1 mps 761 mmHg 47%
09:00 +16°C° 0 mm 1 mps 761 mmHg 45%
10:00 +19°C° 0 mm 1 mps 761 mmHg 43%
11:00 +21°C° 0 mm 1 mps 760 mmHg 40%
12:00 +21°C° 0 mm 1 mps 760 mmHg 38%
13:00 +21°C° 0 mm 2 mps 759 mmHg 36%
14:00 +23°C° 0 mm 2 mps 759 mmHg 33%
15:00 +23°C° 0 mm 2 mps 759 mmHg 33%
16:00 +23°C° 0 mm 1 mps 758 mmHg 34%
17:00 +23°C° 0 mm 1 mps 758 mmHg 34%
18:00 +22°C° 0 mm 1 mps 758 mmHg 39%
19:00 +20°C° 0 mm 1 mps 758 mmHg 43%
20:00 +18°C° 0 mm 2 mps 757 mmHg 48%
21:00 +18°C° 0 mm 1 mps 757 mmHg 50%
22:00 +16°C° 0 mm 1 mps 757 mmHg 51%
23:00 +16°C° 0 mm 1 mps 757 mmHg 53%

Day after tomorrow, 12 May, Wednesday

Time Temperature Precipitation Wind Pressure Humidity
00:00 +15°C° 0 mm 1 mps 756 mmHg 56%
01:00 +15°C° 0 mm 1 mps 756 mmHg 58%
02:00 +15°C° 0 mm 1 mps 755 mmHg 61%
03:00 +14°C° 0 mm 2 mps 755 mmHg 65%
04:00 +14°C° 0 mm 2 mps 755 mmHg 70%
05:00 +14°C° 0 mm 2 mps 755 mmHg 74%
06:00 +14°C° 0 mm 3 mps 755 mmHg 76%
07:00 +14°C° 0 mm 4 mps 755 mmHg 79%
08:00 +14°C° 0 mm 5 mps 755 mmHg 82%
09:00 +14°C° 0 mm 5 mps 755 mmHg 81%
10:00 +14°C° 0 mm 6 mps 755 mmHg 80%
11:00 +14°C° 0 mm 6 mps 755 mmHg 80%
12:00 +14°C° 0 mm 6 mps 755 mmHg 77%
13:00 +14°C° 0 mm 6 mps 755 mmHg 75%
14:00 +14°C° 0 mm 6 mps 755 mmHg 72%
15:00 +14°C° 0 mm 5 mps 755 mmHg 72%
16:00 +14°C° 0 mm 5 mps 755 mmHg 71%
17:00 +14°C° 0 mm 5 mps 754 mmHg 71%
18:00 +13°C° 0 mm 5 mps 754 mmHg 72%
19:00 +13°C° 0 mm 4 mps 754 mmHg 74%
20:00 +12°C° 0 mm 4 mps 754 mmHg 75%
21:00 +12°C° 0 mm 4 mps 754 mmHg 76%
22:00 +12°C° 0 mm 3 mps 754 mmHg 77%
23:00 +12°C° 0 mm 3 mps 754 mmHg 78%

13 May, Thursday

Time Temperature Precipitation Wind Pressure Humidity
00:00 +11°C° 0 mm 3 mps 754 mmHg 79%
01:00 +11°C° 0 mm 3 mps 753 mmHg 80%
02:00 +11°C° 0 mm 3 mps 753 mmHg 81%
03:00 +11°C° 0.1 mm 3 mps 753 mmHg 84%
04:00 +11°C° 0.1 mm 3 mps 753 mmHg 86%
05:00 +11°C° 0.1 mm 3 mps 752 mmHg 88%
06:00 +11°C° 0.1 mm 4 mps 752 mmHg 89%
07:00 +12°C° 0.1 mm 4 mps 752 mmHg 90%
08:00 +12°C° 0.1 mm 4 mps 752 mmHg 90%
09:00 +14°C° 0.1 mm 5 mps 752 mmHg 82%
10:00 +15°C° 0.1 mm 6 mps 752 mmHg 74%
11:00 +16°C° 0.1 mm 6 mps 752 mmHg 66%
12:00 +19°C° 0 mm 6 mps 751 mmHg 59%
13:00 +20°C° 0 mm 6 mps 751 mmHg 53%
14:00 +21°C° 0 mm 6 mps 751 mmHg 47%
15:00 +21°C° 0.2 mm 6 mps 751 mmHg 50%
16:00 +20°C° 0.2 mm 6 mps 751 mmHg 53%
17:00 +20°C° 0.2 mm 6 mps 750 mmHg 56%
18:00 +17°C° 0.1 mm 5 mps 751 mmHg 64%
19:00 +15°C° 0.1 mm 4 mps 751 mmHg 71%
20:00 +13°C° 0.1 mm 4 mps 751 mmHg 78%
21:00 +13°C° 0 mm 3 mps 751 mmHg 81%
22:00 +13°C° 0 mm 3 mps 751 mmHg 84%
23:00 +13°C° 0 mm 2 mps 751 mmHg 87%

14 May, Friday

Time Temperature Precipitation Wind Pressure Humidity
00:00 +13°C° 0 mm 2 mps 751 mmHg 88%
01:00 +13°C° 0 mm 2 mps 751 mmHg 89%
02:00 +13°C° 0 mm 2 mps 751 mmHg 91%
03:00 +13°C° 0 mm 2 mps 751 mmHg 91%
04:00 +13°C° 0 mm 2 mps 751 mmHg 91%
05:00 +13°C° 0 mm 2 mps 752 mmHg 91%
06:00 +14°C° 0.3 mm 2 mps 752 mmHg 87%
07:00 +15°C° 0.3 mm 2 mps 752 mmHg 83%
08:00 +16°C° 0.3 mm 1 mps 752 mmHg 78%
09:00 +17°C° 0.2 mm 2 mps 752 mmHg 76%
10:00 +18°C° 0.2 mm 3 mps 752 mmHg 73%
11:00 +19°C° 0.2 mm 3 mps 752 mmHg 71%
12:00 +20°C° 0.4 mm 3 mps 752 mmHg 67%
13:00 +21°C° 0.4 mm 3 mps 752 mmHg 63%
14:00 +22°C° 0.4 mm 3 mps 752 mmHg 59%
15:00 +20°C° 3 mm 4 mps 752 mmHg 68%
16:00 +19°C° 3 mm 5 mps 752 mmHg 77%
17:00 +16°C° 3 mm 6 mps 752 mmHg 86%
18:00 +16°C° 1.2 mm 5 mps 752 mmHg 87%
19:00 +15°C° 1.2 mm 4 mps 752 mmHg 88%
20:00 +16°C° 1.2 mm 2 mps 752 mmHg 89%
21:00 +15°C° 0.2 mm 2 mps 752 mmHg 89%
22:00 +15°C° 0.2 mm 2 mps 752 mmHg 89%
23:00 +14°C° 0.2 mm 3 mps 752 mmHg 88%

15 May, Saturday

Time Temperature Precipitation Wind Pressure Humidity
00:00 +15°C° 0 mm 2 mps 752 mmHg 88%
01:00 +14°C° 0 mm 2 mps 752 mmHg 88%
02:00 +14°C° 0 mm 2 mps 753 mmHg 88%
03:00 +14°C° 0 mm 2 mps 753 mmHg 88%
04:00 +14°C° 0 mm 2 mps 753 mmHg 87%
05:00 +13°C° 0 mm 2 mps 753 mmHg 86%
06:00 +15°C° 0 mm 2 mps 753 mmHg 80%
07:00 +17°C° 0 mm 2 mps 754 mmHg 73%
08:00 +19°C° 0 mm 2 mps 754 mmHg 66%
09:00 +20°C° 0 mm 2 mps 754 mmHg 62%
10:00 +21°C° 0 mm 2 mps 754 mmHg 57%
11:00 +23°C° 0 mm 2 mps 754 mmHg 52%
12:00 +24°C° 0 mm 3 mps 754 mmHg 49%
13:00 +24°C° 0 mm 3 mps 754 mmHg 46%
14:00 +25°C° 0 mm 4 mps 754 mmHg 43%
15:00 +25°C° 0 mm 4 mps 753 mmHg 44%
16:00 +25°C° 0 mm 4 mps 753 mmHg 44%
17:00 +25°C° 0 mm 4 mps 753 mmHg 45%
18:00 +22°C° 0 mm 4 mps 753 mmHg 50%
19:00 +21°C° 0 mm 3 mps 753 mmHg 55%
20:00 +19°C° 0 mm 3 mps 753 mmHg 60%
21:00 +18°C° 0 mm 2 mps 753 mmHg 63%
22:00 +18°C° 0 mm 2 mps 753 mmHg 65%
23:00 +17°C° 0 mm 2 mps 753 mmHg 68%
Show more

We Need Your Consent

Meteoprog and our Service Providers may store and access personal data such as cookies, device identifiers or other similar technologies on your device and process such data to personalise content and ads, as well as provide social media features and to analyse the traffic.

  • Store and/or access information on your device

    Cookies, device identifiers or other information can be stored or accessed on your device for the purposes indicated above.

  • Personalised ads and content, ad and content measurement, audience insights, and products development

    Ads and content can be personalised based on a profile. More data can be added to better personalise ads and content. Ad and content performance can be measured. Insights about the audience who saw the ads and content can be derived. Such data can be used to develop or improve user’s experience, systems and software.

By clicking ‘I Agree’ you will allow the use of indicated cookies, device identifiers, web beacons or other similar technologies. Your settings can be changed in the browser on your device.

For certain purposes, legitimate interests may be relied on, rather than consent. You can read more about this in our Privacy and Cookie Policy.